Time,TemperatureF,DewpointF,PressureIn,WindDirection,WindDirectionDegrees,WindSpeedMPH,WindSpeedGustMPH,Humidity,HourlyPrecipIn,Conditions,Clouds,dailyrainin,SoftwareType,DateUTC
2013-01-05 00:00:00,28.9,19.0,29.99,NNW,342,4.0,11.0,66,0.00,,CLR,0.00,VWS V14.01,2013-01-05 05:00:00,
2013-01-05 00:02:00,28.9,19.0,29.99,East,91,2.0,16.0,66,0.00,,CLR,0.00,VWS V14.01,2013-01-05 05:02:00,
2013-01-05 00:07:00,28.8,19.2,29.99,NNE,32,4.0,16.0,67,0.00,,CLR,0.00,VWS V14.01,2013-01-05 05:07:00,
2013-01-05 00:12:00,28.7,19.1,30.00,WNW,293,3.0,16.0,67,0.00,,CLR,0.00,VWS V14.01,2013-01-05 05:12:00,
2013-01-05 00:17:00,28.7,19.1,30.00,SW,215,4.0,11.0,67,0.00,,CLR,0.00,VWS V14.01,2013-01-05 05:17:00,
2013-01-05 00:22:00,28.6,19.0,30.00,South,174,1.0,11.0,67,0.00,,CLR,0.00,VWS V14.01,2013-01-05 05:22:00,
2013-01-05 00:27:00,28.5,19.0,30.00,NNE,32,6.0,11.0,67,0.00,,CLR,0.00,VWS V14.01,2013-01-05 05:27:00,
2013-01-05 00:32:00,28.4,18.9,30.00,WSW,252,4.0,9.0,67,0.00,,CLR,0.00,VWS V14.01,2013-01-05 05:32:00,
2013-01-05 00:37:00,28.3,19.1,30.00,East,82,2.0,10.0,68,0.00,,CLR,0.00,VWS V14.01,2013-01-05 05:37:00,
2013-01-05 00:42:00,28.3,19.1,30.01,NNE,30,2.0,10.0,68,0.00,,CLR,0.00,VWS V14.01,2013-01-05 05:42:00,
2013-01-05 00:47:00,28.2,19.0,30.01,WNW,287,1.0,10.0,68,0.00,,CLR,0.00,VWS V14.01,2013-01-05 05:47:00,
2013-01-05 00:52:00,28.0,18.8,30.01,SW,236,1.0,10.0,68,0.00,,CLR,0.00,VWS V14.01,2013-01-05 05:52:00,
2013-01-05 00:57:00,27.9,19.1,30.01,NW,323,2.0,10.0,69,0.00,,CLR,0.00,VWS V14.01,2013-01-05 05:57:00,
2013-01-05 01:02:00,27.9,18.7,30.00,NNW,338,2.0,8.0,68,0.00,,SCT045,0.00,VWS V14.01,2013-01-05 06:02:00,
2013-01-05 01:07:00,27.9,19.1,30.01,North,352,3.0,9.0,69,0.00,,SCT045,0.00,VWS V14.01,2013-01-05 06:07:00,
2013-01-05 01:12:00,27.7,18.9,30.01,WSW,238,1.0,9.0,69,0.00,,SCT045,0.00,VWS V14.01,2013-01-05 06:12:00,
2013-01-05 01:17:00,27.6,18.8,30.02,WNW,297,2.0,8.0,69,0.00,,SCT045,0.00,VWS V14.01,2013-01-05 06:17:00,
2013-01-05 01:22:00,27.6,18.8,30.01,NNW,338,2.0,8.0,69,0.00,,SCT045,0.00,VWS V14.01,2013-01-05 06:22:00,
2013-01-05 01:27:00,27.6,18.8,30.02,NE,44,1.0,15.0,69,0.00,,SCT045,0.00,VWS V14.01,2013-01-05 06:27:00,
2013-01-05 01:32:00,27.6,18.8,30.02,WNW,285,7.0,7.0,69,0.00,,SCT045,0.00,VWS V14.01,2013-01-05 06:32:00,
2013-01-05 01:37:00,27.5,18.7,30.02,NNW,347,3.0,7.0,69,0.00,,SCT045,0.00,VWS V14.01,2013-01-05 06:37:00,
2013-01-05 01:42:00,27.3,18.8,30.03,NW,324,1.0,7.0,70,0.00,,SCT045,0.00,VWS V14.01,2013-01-05 06:42:00,
2013-01-05 01:47:00,27.2,18.7,30.03,NW,324,3.0,6.0,70,0.00,,SCT045,0.00,VWS V14.01,2013-01-05 06:47:00,
2013-01-05 01:52:00,27.3,18.8,30.03,West,274,3.0,9.0,70,0.00,,SCT045,0.00,VWS V14.01,2013-01-05 06:52:00,
2013-01-05 01:57:00,27.2,18.7,30.03,NW,314,2.0,9.0,70,0.00,,SCT045,0.00,VWS V14.01,2013-01-05 06:57:00,
2013-01-05 02:02:00,27.1,18.6,30.04,WNW,284,2.0,6.0,70,0.00,,OVC043,0.00,VWS V14.01,2013-01-05 07:02:00,
2013-01-05 02:07:00,27.1,18.6,30.04,NNE,23,6.0,7.0,70,0.00,,OVC043,0.00,VWS V14.01,2013-01-05 07:07:00,
2013-01-05 02:12:00,27.0,18.5,30.05,WSW,249,1.0,7.0,70,0.00,,OVC043,0.00,VWS V14.01,2013-01-05 07:12:00,
2013-01-05 02:17:00,27.0,18.5,30.05,WSW,250,2.0,8.0,70,0.00,,OVC043,0.00,VWS V14.01,2013-01-05 07:17:00,
2013-01-05 02:22:00,26.9,18.4,30.05,East,94,2.0,9.0,70,0.00,,OVC043,0.00,VWS V14.01,2013-01-05 07:22:00,
2013-01-05 02:27:00,26.8,18.3,30.05,NNE,29,3.0,9.0,70,0.00,,OVC043,0.00,VWS V14.01,2013-01-05 07:27:00,
2013-01-05 02:32:00,26.8,18.3,30.05,NW,324,5.0,12.0,70,0.00,,OVC043,0.00,VWS V14.01,2013-01-05 07:32:00,
2013-01-05 02:37:00,26.8,18.3,30.06,WSW,239,2.0,12.0,70,0.00,,OVC043,0.00,VWS V14.01,2013-01-05 07:37:00,
2013-01-05 02:42:00,26.7,18.2,30.06,SE,131,1.0,12.0,70,0.00,,OVC043,0.00,VWS V14.01,2013-01-05 07:42:00,
2013-01-05 02:47:00,26.7,18.2,30.06,SW,228,7.0,8.0,70,0.00,,OVC043,0.00,VWS V14.01,2013-01-05 07:47:00,
2013-01-05 02:52:00,26.7,18.2,30.06,SW,219,2.0,8.0,70,0.00,,OVC043,0.00,VWS V14.01,2013-01-05 07:52:00,
2013-01-05 02:57:00,26.6,18.5,30.06,NW,305,0.0,8.0,71,0.00,,OVC043,0.00,VWS V14.01,2013-01-05 07:57:00,
2013-01-05 03:02:00,26.6,18.5,30.06,West,274,3.0,8.0,71,0.00,,OVC041,0.00,VWS V14.01,2013-01-05 08:02:00,
2013-01-05 03:07:00,26.6,18.1,30.06,SW,225,4.0,12.0,70,0.00,,OVC041,0.00,VWS V14.01,2013-01-05 08:07:00,
2013-01-05 03:12:00,26.6,18.1,30.06,NNE,12,3.0,12.0,70,0.00,,OVC041,0.00,VWS V14.01,2013-01-05 08:12:00,
2013-01-05 03:17:00,26.6,18.1,30.06,ESE,117,1.0,12.0,70,0.00,,OVC041,0.00,VWS V14.01,2013-01-05 08:17:00,
2013-01-05 03:22:00,26.7,18.2,30.06,ENE,70,2.0,12.0,70,0.00,,OVC041,0.00,VWS V14.01,2013-01-05 08:22:00,
2013-01-05 03:27:00,26.6,18.5,30.06,North,350,4.0,12.0,71,0.00,,OVC041,0.00,VWS V14.01,2013-01-05 08:27:00,
2013-01-05 03:32:00,26.5,18.4,30.06,SSE,165,0.0,4.0,71,0.00,,OVC041,0.00,VWS V14.01,2013-01-05 08:32:00,
2013-01-05 03:37:00,26.3,18.2,30.06,NE,54,3.0,6.0,71,0.00,,OVC041,0.00,VWS V14.01,2013-01-05 08:37:00,
2013-01-05 03:42:00,26.3,18.2,30.07,WNW,290,3.0,6.0,71,0.00,,OVC041,0.00,VWS V14.01,2013-01-05 08:42:00,
2013-01-05 03:47:00,26.2,18.1,30.07,WSW,250,1.0,6.0,71,0.00,,OVC041,0.00,VWS V14.01,2013-01-05 08:47:00,
2013-01-05 03:52:00,26.3,18.2,30.07,NNE,20,1.0,11.0,71,0.00,,OVC041,0.00,VWS V14.01,2013-01-05 08:52:00,
2013-01-05 03:57:00,26.4,18.3,30.07,WNW,293,3.0,11.0,71,0.00,,OVC041,0.00,VWS V14.01,2013-01-05 08:57:00,
2013-01-05 04:02:00,26.5,18.4,30.07,NW,311,3.0,6.0,71,0.00,,OVC041,0.00,VWS V14.01,2013-01-05 09:02:00,
2013-01-05 04:07:00,26.5,18.4,30.07,NE,40,3.0,9.0,71,0.00,,OVC041,0.00,VWS V14.01,2013-01-05 09:07:00,
2013-01-05 04:12:00,26.5,18.4,30.07,NW,311,8.0,11.0,71,0.00,,OVC041,0.00,VWS V14.01,2013-01-05 09:12:00,
2013-01-05 04:17:00,26.5,18.4,30.07,West,278,5.0,6.0,71,0.00,,OVC041,0.00,VWS V14.01,2013-01-05 09:17:00,
2013-01-05 04:22:00,26.4,18.6,30.08,WNW,287,5.0,8.0,72,0.00,,OVC041,0.00,VWS V14.01,2013-01-05 09:22:00,
2013-01-05 04:27:00,26.4,18.6,30.08,ENE,68,6.0,8.0,72,0.00,,OVC041,0.00,VWS V14.01,2013-01-05 09:27:00,
2013-01-05 04:32:00,26.4,18.6,30.08,West,264,2.0,5.0,72,0.00,,OVC041,0.00,VWS V14.01,2013-01-05 09:32:00,
2013-01-05 04:37:00,26.5,18.7,30.08,NNE,19,4.0,8.0,72,0.00,,OVC041,0.00,VWS V14.01,2013-01-05 09:37:00,
2013-01-05 04:42:00,26.7,18.9,30.09,NNE,27,3.0,11.0,72,0.00,,OVC041,0.00,VWS V14.01,2013-01-05 09:42:00,
2013-01-05 04:47:00,26.8,19.0,30.09,SSW,207,0.0,8.0,72,0.00,,OVC041,0.00,VWS V14.01,2013-01-05 09:47:00,
2013-01-05 04:52:00,27.0,19.2,30.09,WNW,287,7.0,9.0,72,0.00,,OVC041,0.00,VWS V14.01,2013-01-05 09:52:00,
2013-01-05 04:57:00,27.2,19.4,30.09,ESE,121,1.0,10.0,72,0.00,,OVC041,0.00,VWS V14.01,2013-01-05 09:57:00,
2013-01-05 05:02:00,27.3,19.1,30.09,NW,311,3.0,10.0,71,0.00,,OVC041,0.00,VWS V14.01,2013-01-05 10:02:00,
2013-01-05 05:07:00,27.4,19.2,30.10,NE,50,7.0,11.0,71,0.00,,OVC041,0.00,VWS V14.01,2013-01-05 10:07:00,
2013-01-05 05:12:00,27.5,19.4,30.10,WSW,256,2.0,13.0,71,0.00,,OVC041,0.00,VWS V14.01,2013-01-05 10:12:00,
2013-01-05 05:17:00,27.5,19.7,30.10,North,3,6.0,6.0,72,0.00,,OVC041,0.00,VWS V14.01,2013-01-05 10:17:00,
2013-01-05 05:22:00,27.6,19.8,30.10,NNE,24,2.0,7.0,72,0.00,,OVC041,0.00,VWS V14.01,2013-01-05 10:22:00,
2013-01-05 05:27:00,27.6,19.4,30.10,North,11,3.0,7.0,71,0.00,,OVC041,0.00,VWS V14.01,2013-01-05 10:27:00,
2013-01-05 05:32:00,27.6,19.4,30.11,NW,313,7.0,8.0,71,0.00,,OVC041,0.00,VWS V14.01,2013-01-05 10:32:00,
2013-01-05 05:37:00,27.7,19.5,30.12,NW,308,2.0,8.0,71,0.00,,OVC041,0.00,VWS V14.01,2013-01-05 10:37:00,
2013-01-05 05:42:00,27.8,19.6,30.12,West,276,4.0,9.0,71,0.00,,OVC041,0.00,VWS V14.01,2013-01-05 10:42:00,
2013-01-05 05:47:00,27.7,19.9,30.12,WNW,291,2.0,3.0,72,0.00,,OVC041,0.00,VWS V14.01,2013-01-05 10:47:00,
2013-01-05 05:52:00,27.8,20.0,30.13,West,271,5.0,10.0,72,0.00,,OVC041,0.00,VWS V14.01,2013-01-05 10:52:00,
2013-01-05 05:57:00,27.8,20.0,30.13,NNE,13,1.0,10.0,72,0.00,,OVC041,0.00,VWS V14.01,2013-01-05 10:57:00,
2013-01-05 06:02:00,27.8,20.0,30.14,NNE,31,1.0,4.0,72,0.00,,OVC041,0.00,VWS V14.01,2013-01-05 11:02:00,
2013-01-05 06:07:00,27.7,19.9,30.14,East,80,2.0,9.0,72,0.00,,OVC041,0.00,VWS V14.01,2013-01-05 11:07:00,
2013-01-05 06:12:00,27.7,19.9,30.14,West,266,3.0,9.0,72,0.00,,OVC041,0.00,VWS V14.01,2013-01-05 11:12:00,
2013-01-05 06:17:00,27.6,19.8,30.14,NNE,29,4.0,6.0,72,0.00,,OVC041,0.00,VWS V14.01,2013-01-05 11:17:00,
2013-01-05 06:22:00,27.6,19.8,30.14,NW,304,9.0,9.0,72,0.00,,OVC041,0.00,VWS V14.01,2013-01-05 11:22:00,
2013-01-05 06:27:00,27.6,19.8,30.15,WNW,283,3.0,11.0,72,0.00,,OVC041,0.00,VWS V14.01,2013-01-05 11:27:00,
2013-01-05 06:32:00,27.6,19.8,30.15,SSW,212,1.0,7.0,72,0.00,,OVC041,0.00,VWS V14.01,2013-01-05 11:32:00,
2013-01-05 06:37:00,27.5,20.0,30.16,West,277,1.0,7.0,73,0.00,,OVC041,0.00,VWS V14.01,2013-01-05 11:37:00,
2013-01-05 06:42:00,27.5,20.0,30.16,NW,324,0.0,7.0,73,0.00,,OVC041,0.00,VWS V14.01,2013-01-05 11:42:00,
2013-01-05 06:47:00,27.4,19.9,30.17,NE,42,1.0,9.0,73,0.00,,OVC041,0.00,VWS V14.01,2013-01-05 11:47:00,
2013-01-05 06:52:00,27.3,19.8,30.16,WNW,283,1.0,9.0,73,0.00,,OVC041,0.00,VWS V14.01,2013-01-05 11:52:00,
2013-01-05 06:57:00,27.2,19.7,30.16,West,259,2.0,9.0,73,0.00,,OVC041,0.00,VWS V14.01,2013-01-05 11:57:00,
2013-01-05 07:02:00,27.1,19.9,30.17,WNW,293,4.0,5.0,74,0.00,,OVC048,0.00,VWS V14.01,2013-01-05 12:02:00,
2013-01-05 07:07:00,27.1,19.9,30.17,WNW,290,3.0,8.0,74,0.00,,OVC048,0.00,VWS V14.01,2013-01-05 12:07:00,
2013-01-05 07:12:00,27.2,20.0,30.17,NW,307,2.0,8.0,74,0.00,,OVC048,0.00,VWS V14.01,2013-01-05 12:12:00,
2013-01-05 07:17:00,27.2,20.0,30.17,WNW,286,3.0,7.0,74,0.00,,OVC048,0.00,VWS V14.01,2013-01-05 12:17:00,
2013-01-05 07:22:00,27.3,20.4,30.17,East,101,0.0,7.0,75,0.00,,OVC048,0.00,VWS V14.01,2013-01-05 12:22:00,
2013-01-05 07:27:00,27.4,20.2,30.17,NNE,31,3.0,8.0,74,0.00,,OVC048,0.00,VWS V14.01,2013-01-05 12:27:00,
2013-01-05 07:32:00,27.5,20.3,30.17,North,11,0.0,6.0,74,0.00,,OVC048,0.00,VWS V14.01,2013-01-05 12:32:00,
2013-01-05 07:37:00,27.6,20.4,30.17,East,82,1.0,8.0,74,0.00,,OVC048,0.00,VWS V14.01,2013-01-05 12:37:00,
2013-01-05 07:42:00,27.8,20.9,30.18,WNW,287,3.0,8.0,75,0.00,,OVC048,0.00,VWS V14.01,2013-01-05 12:42:00,
2013-01-05 07:47:00,28.1,20.9,30.19,West,280,2.0,5.0,74,0.00,,OVC048,0.00,VWS V14.01,2013-01-05 12:47:00,
2013-01-05 07:52:00,28.3,21.1,30.19,NW,317,2.0,7.0,74,0.00,,OVC048,0.00,VWS V14.01,2013-01-05 12:52:00,
2013-01-05 07:57:00,28.5,21.3,30.19,SW,222,2.0,7.0,74,0.00,,OVC048,0.00,VWS V14.01,2013-01-05 12:57:00,
2013-01-05 08:02:00,28.6,21.4,30.19,NNE,12,2.0,7.0,74,0.00,,OVC048,0.00,VWS V14.01,2013-01-05 13:02:00,
2013-01-05 08:07:00,28.6,21.4,30.19,NNW,342,1.0,7.0,74,0.00,,OVC048,0.00,VWS V14.01,2013-01-05 13:07:00,
2013-01-05 08:12:00,28.7,21.5,30.20,WSW,250,1.0,9.0,74,0.00,,OVC048,0.00,VWS V14.01,2013-01-05 13:12:00,
2013-01-05 08:17:00,28.7,21.5,30.20,NNW,347,1.0,3.0,74,0.00,,OVC048,0.00,VWS V14.01,2013-01-05 13:17:00,
2013-01-05 08:22:00,28.8,21.6,30.20,West,260,1.0,7.0,74,0.00,,OVC048,0.00,VWS V14.01,2013-01-05 13:22:00,
2013-01-05 08:27:00,29.0,21.8,30.20,North,3,2.0,7.0,74,0.00,,OVC048,0.00,VWS V14.01,2013-01-05 13:27:00,
2013-01-05 08:32:00,29.1,21.5,30.21,NW,311,1.0,6.0,73,0.00,,OVC048,0.00,VWS V14.01,2013-01-05 13:32:00,
2013-01-05 08:37:00,29.4,21.8,30.21,NW,312,1.0,9.0,73,0.00,,OVC048,0.00,VWS V14.01,2013-01-05 13:37:00,
2013-01-05 08:42:00,29.6,22.0,30.21,NW,313,0.0,9.0,73,0.00,,OVC048,0.00,VWS V14.01,2013-01-05 13:42:00,
2013-01-05 08:47:00,30.0,22.4,30.21,WNW,285,1.0,7.0,73,0.00,,OVC048,0.00,VWS V14.01,2013-01-05 13:47:00,
2013-01-05 08:52:00,30.3,22.7,30.22,WNW,288,2.0,7.0,73,0.00,,OVC048,0.00,VWS V14.01,2013-01-05 13:52:00,
2013-01-05 08:57:00,30.8,23.2,30.22,WNW,283,3.0,7.0,73,0.00,,OVC048,0.00,VWS V14.01,2013-01-05 13:57:00,
2013-01-05 09:02:00,31.1,22.8,30.22,North,352,2.0,3.0,71,0.00,,OVC046,0.00,VWS V14.01,2013-01-05 14:02:00,
2013-01-05 09:07:00,31.3,23.0,30.22,North,4,2.0,4.0,71,0.00,,OVC046,0.00,VWS V14.01,2013-01-05 14:07:00,
2013-01-05 09:12:00,31.9,23.6,30.23,ENE,70,0.0,4.0,71,0.00,,OVC046,0.00,VWS V14.01,2013-01-05 14:12:00,
2013-01-05 09:17:00,32.4,23.4,30.23,West,270,1.0,4.0,69,0.00,,OVC046,0.00,VWS V14.01,2013-01-05 14:17:00,
2013-01-05 09:22:00,32.6,23.6,30.23,SW,224,1.0,4.0,69,0.00,,OVC046,0.00,VWS V14.01,2013-01-05 14:22:00,
2013-01-05 09:27:00,32.9,23.5,30.24,NW,321,1.0,8.0,68,0.00,,OVC046,0.00,VWS V14.01,2013-01-05 14:27:00,
2013-01-05 09:32:00,32.9,23.9,30.24,East,83,1.0,2.0,69,0.00,,OVC046,0.00,VWS V14.01,2013-01-05 14:32:00,
2013-01-05 09:37:00,33.1,23.7,30.24,East,82,1.0,5.0,68,0.00,,OVC046,0.00,VWS V14.01,2013-01-05 14:37:00,
2013-01-05 09:42:00,33.1,23.4,30.24,NW,319,1.0,9.0,67,0.00,,OVC046,0.00,VWS V14.01,2013-01-05 14:42:00,
2013-01-05 09:47:00,33.3,23.9,30.25,WNW,283,1.0,4.0,68,0.00,,OVC046,0.00,VWS V14.01,2013-01-05 14:47:00,
2013-01-05 09:52:00,34.0,24.2,30.25,East,82,1.0,6.0,67,0.00,,OVC046,0.00,VWS V14.01,2013-01-05 14:52:00,
2013-01-05 09:57:00,34.4,23.9,30.25,SE,136,1.0,9.0,65,0.00,,OVC046,0.00,VWS V14.01,2013-01-05 14:57:00,
2013-01-05 10:02:00,34.7,24.1,30.25,NNE,30,2.0,7.0,65,0.00,,OVC044,0.00,VWS V14.01,2013-01-05 15:02:00,
2013-01-05 10:07:00,35.2,24.3,30.26,North,354,2.0,8.0,64,0.00,,OVC044,0.00,VWS V14.01,2013-01-05 15:07:00,
2013-01-05 10:12:00,35.3,24.4,30.26,North,3,5.0,8.0,64,0.00,,OVC044,0.00,VWS V14.01,2013-01-05 15:12:00,
2013-01-05 10:17:00,35.5,24.9,30.26,NNW,332,3.0,5.0,65,0.00,,OVC044,0.00,VWS V14.01,2013-01-05 15:17:00,
2013-01-05 10:22:00,35.3,23.6,30.25,NNE,24,4.0,13.0,62,0.00,,OVC044,0.00,VWS V14.01,2013-01-05 15:22:00,
2013-01-05 10:27:00,35.2,23.9,30.25,SW,221,0.0,13.0,63,0.00,,OVC044,0.00,VWS V14.01,2013-01-05 15:27:00,
2013-01-05 10:32:00,35.4,23.7,30.25,NNE,20,4.0,9.0,62,0.00,,OVC044,0.00,VWS V14.01,2013-01-05 15:32:00,
2013-01-05 10:37:00,35.5,24.2,30.25,NW,312,6.0,12.0,63,0.00,,OVC044,0.00,VWS V14.01,2013-01-05 15:37:00,
2013-01-05 10:42:00,35.5,23.8,30.25,NW,304,1.0,12.0,62,0.00,,OVC044,0.00,VWS V14.01,2013-01-05 15:42:00,
2013-01-05 10:47:00,35.5,23.8,30.26,NNW,347,3.0,14.0,62,0.00,,OVC044,0.00,VWS V14.01,2013-01-05 15:47:00,
2013-01-05 10:52:00,35.7,24.0,30.26,NW,307,6.0,14.0,62,0.00,,OVC044,0.00,VWS V14.01,2013-01-05 15:52:00,
2013-01-05 10:57:00,35.7,23.6,30.26,NW,326,5.0,14.0,61,0.00,,OVC044,0.00,VWS V14.01,2013-01-05 15:57:00,
2013-01-05 11:02:00,35.6,23.5,30.26,North,355,18.0,18.0,61,0.00,,OVC044,0.00,VWS V14.01,2013-01-05 16:02:00,
2013-01-05 11:07:00,35.4,23.7,30.25,ENE,78,5.0,18.0,62,0.00,,OVC044,0.00,VWS V14.01,2013-01-05 16:07:00,
2013-01-05 11:12:00,35.3,23.6,30.24,SSE,166,0.0,18.0,62,0.00,,OVC044,0.00,VWS V14.01,2013-01-05 16:12:00,
2013-01-05 11:17:00,35.5,23.4,30.24,NNW,342,4.0,14.0,61,0.00,,OVC044,0.00,VWS V14.01,2013-01-05 16:17:00,
2013-01-05 11:22:00,35.8,23.7,30.24,North,6,1.0,14.0,61,0.00,,OVC044,0.00,VWS V14.01,2013-01-05 16:22:00,
2013-01-05 11:27:00,35.9,23.8,30.24,West,263,4.0,14.0,61,0.00,,OVC044,0.00,VWS V14.01,2013-01-05 16:27:00,
2013-01-05 11:32:00,35.9,23.8,30.25,NNE,13,10.0,10.0,61,0.00,,OVC044,0.00,VWS V14.01,2013-01-05 16:32:00,
2013-01-05 11:37:00,35.9,23.8,30.25,SW,234,2.0,10.0,61,0.00,,OVC044,0.00,VWS V14.01,2013-01-05 16:37:00,
2013-01-05 11:42:00,36.0,23.5,30.24,ENE,67,4.0,10.0,60,0.00,,OVC044,0.00,VWS V14.01,2013-01-05 16:42:00,
2013-01-05 11:47:00,36.2,23.7,30.24,North,352,4.0,7.0,60,0.00,,OVC044,0.00,VWS V14.01,2013-01-05 16:47:00,
2013-01-05 11:52:00,36.2,23.3,30.23,SW,231,6.0,11.0,59,0.00,,OVC044,0.00,VWS V14.01,2013-01-05 16:52:00,
2013-01-05 11:57:00,36.3,23.8,30.23,ENE,60,4.0,11.0,60,0.00,,OVC044,0.00,VWS V14.01,2013-01-05 16:57:00,
2013-01-05 12:02:00,36.4,23.9,30.23,West,278,1.0,10.0,60,0.00,,CLR,0.00,VWS V14.01,2013-01-05 17:02:00,
2013-01-05 12:07:00,36.6,24.0,30.23,NNE,32,5.0,10.0,60,0.00,,CLR,0.00,VWS V14.01,2013-01-05 17:07:00,
2013-01-05 12:12:00,36.6,23.6,30.22,NE,36,2.0,10.0,59,0.00,,CLR,0.00,VWS V14.01,2013-01-05 17:12:00,
2013-01-05 12:17:00,36.8,23.8,30.21,ENE,76,5.0,9.0,59,0.00,,CLR,0.00,VWS V14.01,2013-01-05 17:17:00,
2013-01-05 12:22:00,36.8,23.8,30.21,East,101,1.0,12.0,59,0.00,,CLR,0.00,VWS V14.01,2013-01-05 17:22:00,
2013-01-05 12:27:00,37.1,23.7,30.21,East,88,2.0,12.0,58,0.00,,CLR,0.00,VWS V14.01,2013-01-05 17:27:00,
2013-01-05 12:32:00,37.3,23.5,30.21,NW,318,6.0,6.0,57,0.00,,CLR,0.00,VWS V14.01,2013-01-05 17:32:00,
2013-01-05 12:37:00,37.7,23.9,30.21,NNE,19,2.0,6.0,57,0.00,,CLR,0.00,VWS V14.01,2013-01-05 17:37:00,
2013-01-05 12:42:00,37.8,24.0,30.21,NW,316,6.0,10.0,57,0.00,,CLR,0.00,VWS V14.01,2013-01-05 17:42:00,
2013-01-05 12:47:00,37.8,24.4,30.21,ENE,77,3.0,4.0,58,0.00,,CLR,0.00,VWS V14.01,2013-01-05 17:47:00,
2013-01-05 12:52:00,38.0,23.7,30.22,NNE,24,2.0,6.0,56,0.00,,CLR,0.00,VWS V14.01,2013-01-05 17:52:00,
2013-01-05 12:57:00,38.2,23.9,30.21,NW,321,3.0,7.0,56,0.00,,CLR,0.00,VWS V14.01,2013-01-05 17:57:00,
2013-01-05 13:02:00,38.7,24.4,30.22,NW,324,7.0,7.0,56,0.00,,CLR,0.00,VWS V14.01,2013-01-05 18:02:00,
2013-01-05 13:07:00,38.6,24.3,30.22,WNW,284,2.0,7.0,56,0.00,,CLR,0.00,VWS V14.01,2013-01-05 18:07:00,
2013-01-05 13:12:00,38.8,24.0,30.22,WSW,257,0.0,7.0,55,0.00,,CLR,0.00,VWS V14.01,2013-01-05 18:12:00,
2013-01-05 13:17:00,39.1,24.3,30.22,East,97,2.0,3.0,55,0.00,,CLR,0.00,VWS V14.01,2013-01-05 18:17:00,
2013-01-05 13:22:00,38.7,23.1,30.22,NNE,25,2.0,6.0,53,0.00,,CLR,0.00,VWS V14.01,2013-01-05 18:22:00,
2013-01-05 13:27:00,38.4,23.7,30.22,ENE,64,1.0,7.0,55,0.00,,CLR,0.00,VWS V14.01,2013-01-05 18:27:00,
2013-01-05 13:32:00,38.2,23.9,30.22,NNW,330,2.0,5.0,56,0.00,,CLR,0.00,VWS V14.01,2013-01-05 18:32:00,
2013-01-05 13:37:00,38.1,23.4,30.21,ENE,69,0.0,5.0,55,0.00,,CLR,0.00,VWS V14.01,2013-01-05 18:37:00,
2013-01-05 13:42:00,38.2,23.5,30.21,North,351,2.0,5.0,55,0.00,,CLR,0.00,VWS V14.01,2013-01-05 18:42:00,
2013-01-05 13:47:00,38.2,23.5,30.20,ENE,75,2.0,4.0,55,0.00,,CLR,0.00,VWS V14.01,2013-01-05 18:47:00,
2013-01-05 13:52:00,38.1,23.4,30.20,North,349,4.0,4.0,55,0.00,,CLR,0.00,VWS V14.01,2013-01-05 18:52:00,
2013-01-05 13:57:00,38.0,23.7,30.21,NNE,21,3.0,4.0,56,0.00,,CLR,0.00,VWS V14.01,2013-01-05 18:57:00,
2013-01-05 14:02:00,38.3,24.0,30.21,NNW,335,1.0,2.0,56,0.00,,CLR,0.00,VWS V14.01,2013-01-05 19:02:00,
2013-01-05 14:07:00,38.2,23.5,30.21,NNE,27,1.0,3.0,55,0.00,,CLR,0.00,VWS V14.01,2013-01-05 19:07:00,
2013-01-05 14:12:00,38.0,23.7,30.21,SW,235,1.0,3.0,56,0.00,,CLR,0.00,VWS V14.01,2013-01-05 19:12:00,
2013-01-05 14:17:00,38.0,23.3,30.21,WNW,287,1.0,2.0,55,0.00,,CLR,0.00,VWS V14.01,2013-01-05 19:17:00,
2013-01-05 14:22:00,38.0,23.7,30.21,West,267,2.0,5.0,56,0.00,,CLR,0.00,VWS V14.01,2013-01-05 19:22:00,
2013-01-05 14:27:00,37.9,23.6,30.22,NNW,342,1.0,6.0,56,0.00,,CLR,0.00,VWS V14.01,2013-01-05 19:27:00,
2013-01-05 14:32:00,38.1,23.4,30.22,North,355,1.0,3.0,55,0.00,,CLR,0.00,VWS V14.01,2013-01-05 19:32:00,
2013-01-05 14:37:00,38.3,24.0,30.22,NW,305,1.0,4.0,56,0.00,,CLR,0.00,VWS V14.01,2013-01-05 19:37:00,
2013-01-05 14:42:00,38.3,23.6,30.22,WNW,288,1.0,6.0,55,0.00,,CLR,0.00,VWS V14.01,2013-01-05 19:42:00,
2013-01-05 14:47:00,38.1,23.4,30.22,West,277,1.0,6.0,55,0.00,,CLR,0.00,VWS V14.01,2013-01-05 19:47:00,
2013-01-05 14:52:00,38.0,23.7,30.22,WSW,255,1.0,6.0,56,0.00,,CLR,0.00,VWS V14.01,2013-01-05 19:52:00,
2013-01-05 14:57:00,37.9,23.6,30.22,NW,323,3.0,6.0,56,0.00,,CLR,0.00,VWS V14.01,2013-01-05 19:57:00,
2013-01-05 15:02:00,37.9,23.6,30.22,WNW,290,3.0,6.0,56,0.00,,CLR,0.00,VWS V14.01,2013-01-05 20:02:00,
2013-01-05 15:07:00,38.2,23.5,30.22,WNW,297,1.0,6.0,55,0.00,,CLR,0.00,VWS V14.01,2013-01-05 20:07:00,
2013-01-05 15:12:00,38.4,24.1,30.22,West,267,0.0,6.0,56,0.00,,CLR,0.00,VWS V14.01,2013-01-05 20:12:00,
2013-01-05 15:17:00,38.5,23.8,30.22,NNW,344,1.0,2.0,55,0.00,,CLR,0.00,VWS V14.01,2013-01-05 20:17:00,
2013-01-05 15:22:00,38.4,23.2,30.22,WNW,285,4.0,8.0,54,0.00,,CLR,0.00,VWS V14.01,2013-01-05 20:22:00,
2013-01-05 15:27:00,37.9,23.2,30.22,SSW,195,1.0,8.0,55,0.00,,CLR,0.00,VWS V14.01,2013-01-05 20:27:00,
2013-01-05 15:32:00,37.5,23.2,30.21,WNW,290,0.0,3.0,56,0.00,,CLR,0.00,VWS V14.01,2013-01-05 20:32:00,
2013-01-05 15:37:00,37.3,23.1,30.22,North,11,0.0,3.0,56,0.00,,CLR,0.00,VWS V14.01,2013-01-05 20:37:00,
2013-01-05 15:42:00,37.1,22.9,30.22,NNW,337,1.0,3.0,56,0.00,,CLR,0.00,VWS V14.01,2013-01-05 20:42:00,
2013-01-05 15:47:00,36.8,22.6,30.22,NNW,335,0.0,2.0,56,0.00,,CLR,0.00,VWS V14.01,2013-01-05 20:47:00,
2013-01-05 15:52:00,36.9,23.1,30.22,WNW,301,1.0,4.0,57,0.00,,CLR,0.00,VWS V14.01,2013-01-05 20:52:00,
2013-01-05 15:57:00,36.7,23.3,30.22,NNW,342,0.0,4.0,58,0.00,,CLR,0.00,VWS V14.01,2013-01-05 20:57:00,
2013-01-05 16:02:00,36.4,22.6,30.23,WSW,250,0.0,3.0,57,0.00,,CLR,0.00,VWS V14.01,2013-01-05 21:02:00,
2013-01-05 16:07:00,36.1,22.8,30.22,WSW,253,2.0,3.0,58,0.00,,CLR,0.00,VWS V14.01,2013-01-05 21:07:00,
2013-01-05 16:12:00,35.7,22.8,30.22,NW,308,0.0,4.0,59,0.00,,CLR,0.00,VWS V14.01,2013-01-05 21:12:00,
2013-01-05 16:17:00,35.3,22.4,30.22,West,274,2.0,2.0,59,0.00,,CLR,0.00,VWS V14.01,2013-01-05 21:17:00,
2013-01-05 16:22:00,34.9,22.4,30.22,NNW,340,0.0,2.0,60,0.00,,CLR,0.00,VWS V14.01,2013-01-05 21:22:00,
2013-01-05 16:26:00,34.5,22.1,30.22,NNE,26,1.0,2.0,60,0.00,,CLR,0.00,VWS V14.01,2013-01-05 21:26:00,
2013-01-05 16:32:00,34.3,21.9,30.22,NW,323,0.0,2.0,60,0.00,,CLR,0.00,VWS V14.01,2013-01-05 21:32:00,
2013-01-05 16:36:00,34.0,21.6,30.22,NW,323,0.0,2.0,60,0.00,,CLR,0.00,VWS V14.01,2013-01-05 21:36:00,
2013-01-05 16:41:00,33.9,21.9,30.21,North,1,0.0,2.0,61,0.00,,CLR,0.00,VWS V14.01,2013-01-05 21:41:00,
2013-01-05 16:46:00,33.7,21.7,30.21,North,1,0.0,0.0,61,0.00,,CLR,0.00,VWS V14.01,2013-01-05 21:46:00,
2013-01-05 16:51:00,33.5,21.9,30.22,North,360,0.0,0.0,62,0.00,,CLR,0.00,VWS V14.01,2013-01-05 21:51:00,
2013-01-05 16:56:00,33.1,21.9,30.23,North,1,0.0,0.0,63,0.00,,CLR,0.00,VWS V14.01,2013-01-05 21:56:00,
2013-01-05 17:01:00,32.6,21.4,30.23,North,1,0.0,0.0,63,0.00,,CLR,0.00,VWS V14.01,2013-01-05 22:01:00,
2013-01-05 17:06:00,32.5,21.7,30.22,North,360,0.0,0.0,64,0.00,,CLR,0.00,VWS V14.01,2013-01-05 22:06:00,
2013-01-05 17:12:00,32.4,21.6,30.23,NNW,342,0.0,0.0,64,0.00,,CLR,0.00,VWS V14.01,2013-01-05 22:12:00,
2013-01-05 17:16:00,32.2,21.4,30.23,NNW,342,0.0,0.0,64,0.00,,CLR,0.00,VWS V14.01,2013-01-05 22:16:00,
2013-01-05 17:21:00,32.1,21.3,30.24,NNW,342,0.0,0.0,64,0.00,,CLR,0.00,VWS V14.01,2013-01-05 22:21:00,
2013-01-05 17:26:00,32.1,21.7,30.23,NNW,342,0.0,0.0,65,0.00,,CLR,0.00,VWS V14.01,2013-01-05 22:26:00,
2013-01-05 17:31:00,31.6,21.9,30.24,NNW,342,0.0,0.0,67,0.00,,CLR,0.00,VWS V14.01,2013-01-05 22:31:00,
2013-01-05 17:36:00,31.3,22.0,30.23,NNW,332,0.0,1.0,68,0.00,,CLR,0.00,VWS V14.01,2013-01-05 22:36:00,
2013-01-05 17:41:00,30.9,21.6,30.24,WNW,293,0.0,2.0,68,0.00,,CLR,0.00,VWS V14.01,2013-01-05 22:41:00,
2013-01-05 17:46:00,31.3,22.0,30.24,West,276,1.0,1.0,68,0.00,,CLR,0.00,VWS V14.01,2013-01-05 22:46:00,
2013-01-05 17:51:00,31.2,21.5,30.24,West,276,0.0,1.0,67,0.00,,CLR,0.00,VWS V14.01,2013-01-05 22:51:00,
2013-01-05 17:56:00,31.4,21.7,30.24,WNW,290,1.0,2.0,67,0.00,,CLR,0.00,VWS V14.01,2013-01-05 22:56:00,
2013-01-05 18:01:00,31.6,22.3,30.24,WNW,302,1.0,3.0,68,0.00,,CLR,0.00,VWS V14.01,2013-01-05 23:01:00,
2013-01-05 18:06:00,31.4,22.1,30.24,West,271,0.0,3.0,68,0.00,,CLR,0.00,VWS V14.01,2013-01-05 23:06:00,
2013-01-05 18:11:00,31.3,22.3,30.24,West,262,1.0,3.0,69,0.00,,CLR,0.00,VWS V14.01,2013-01-05 23:11:00,
2013-01-05 18:16:00,31.0,22.0,30.23,West,262,0.0,0.0,69,0.00,,CLR,0.00,VWS V14.01,2013-01-05 23:16:00,
2013-01-05 18:21:00,30.7,22.1,30.23,West,262,0.0,0.0,70,0.00,,CLR,0.00,VWS V14.01,2013-01-05 23:21:00,
2013-01-05 18:26:00,30.6,22.0,30.23,West,262,0.0,1.0,70,0.00,,CLR,0.00,VWS V14.01,2013-01-05 23:26:00,
2013-01-05 18:31:00,30.9,22.3,30.24,West,259,1.0,2.0,70,0.00,,CLR,0.00,VWS V14.01,2013-01-05 23:31:00,
2013-01-05 18:36:00,31.2,22.6,30.24,WSW,256,0.0,2.0,70,0.00,,CLR,0.00,VWS V14.01,2013-01-05 23:36:00,
2013-01-05 18:41:00,31.1,22.5,30.24,WSW,256,1.0,2.0,70,0.00,,CLR,0.00,VWS V14.01,2013-01-05 23:41:00,
2013-01-05 18:46:00,30.9,22.6,30.24,WSW,253,0.0,1.0,71,0.00,,CLR,0.00,VWS V14.01,2013-01-05 23:46:00,
2013-01-05 18:51:00,30.8,22.5,30.24,WSW,253,0.0,1.0,71,0.00,,CLR,0.00,VWS V14.01,2013-01-05 23:51:00,
2013-01-05 18:56:00,30.8,22.5,30.24,WSW,253,0.0,1.0,71,0.00,,CLR,0.00,VWS V14.01,2013-01-05 23:56:00,
2013-01-05 19:01:00,30.5,22.2,30.24,WSW,253,0.0,0.0,71,0.00,,CLR,0.00,VWS V14.01,2013-01-06 00:01:00,
2013-01-05 19:06:00,30.1,22.2,30.23,WSW,253,0.0,0.0,72,0.00,,CLR,0.00,VWS V14.01,2013-01-06 00:06:00,
2013-01-05 19:11:00,29.7,22.1,30.24,WSW,254,0.0,1.0,73,0.00,,CLR,0.00,VWS V14.01,2013-01-06 00:11:00,
2013-01-05 19:16:00,29.9,22.3,30.24,West,278,2.0,2.0,73,0.00,,CLR,0.00,VWS V14.01,2013-01-06 00:16:00,
2013-01-05 19:21:00,30.0,22.4,30.24,West,259,0.0,3.0,73,0.00,,CLR,0.00,VWS V14.01,2013-01-06 00:21:00,
2013-01-05 19:26:00,30.1,22.5,30.24,WSW,258,0.0,3.0,73,0.00,,CLR,0.00,VWS V14.01,2013-01-06 00:26:00,
2013-01-05 19:31:00,29.9,22.3,30.24,West,259,1.0,1.0,73,0.00,,CLR,0.00,VWS V14.01,2013-01-06 00:31:00,
2013-01-05 19:36:00,30.0,22.4,30.24,SW,233,0.0,2.0,73,0.00,,CLR,0.00,VWS V14.01,2013-01-06 00:36:00,
2013-01-05 19:41:00,30.0,22.4,30.23,SW,228,1.0,2.0,73,0.00,,CLR,0.00,VWS V14.01,2013-01-06 00:41:00,
2013-01-05 19:46:00,29.8,22.2,30.22,SW,229,1.0,1.0,73,0.00,,CLR,0.00,VWS V14.01,2013-01-06 00:46:00,
2013-01-05 19:51:00,29.8,22.5,30.22,WSW,248,2.0,2.0,74,0.00,,CLR,0.00,VWS V14.01,2013-01-06 00:51:00,
2013-01-05 19:56:00,29.8,22.5,30.22,WSW,250,1.0,2.0,74,0.00,,CLR,0.00,VWS V14.01,2013-01-06 00:56:00,
2013-01-05 20:01:00,29.9,22.3,30.22,WSW,252,2.0,2.0,73,0.00,,CLR,0.00,VWS V14.01,2013-01-06 01:01:00,
2013-01-05 20:06:00,29.9,22.3,30.23,WSW,249,3.0,3.0,73,0.00,,CLR,0.00,VWS V14.01,2013-01-06 01:06:00,
2013-01-05 20:11:00,30.0,22.7,30.23,WNW,284,2.0,4.0,74,0.00,,CLR,0.00,VWS V14.01,2013-01-06 01:11:00,
2013-01-05 20:16:00,30.0,22.7,30.23,West,267,3.0,6.0,74,0.00,,CLR,0.00,VWS V14.01,2013-01-06 01:16:00,
2013-01-05 20:21:00,30.0,22.7,30.22,West,260,1.0,6.0,74,0.00,,CLR,0.00,VWS V14.01,2013-01-06 01:21:00,
2013-01-05 20:26:00,29.7,22.4,30.22,WSW,257,0.0,6.0,74,0.00,,CLR,0.00,VWS V14.01,2013-01-06 01:26:00,
2013-01-05 20:31:00,29.5,22.2,30.22,West,262,0.0,0.0,74,0.00,,CLR,0.00,VWS V14.01,2013-01-06 01:31:00,
2013-01-05 20:36:00,29.3,22.4,30.22,WSW,256,0.0,1.0,75,0.00,,CLR,0.00,VWS V14.01,2013-01-06 01:36:00,
2013-01-05 20:41:00,29.0,22.1,30.21,WSW,255,0.0,1.0,75,0.00,,CLR,0.00,VWS V14.01,2013-01-06 01:41:00,
2013-01-05 20:46:00,28.5,21.9,30.21,WSW,255,0.0,0.0,76,0.00,,CLR,0.00,VWS V14.01,2013-01-06 01:46:00,
2013-01-05 20:51:00,28.1,21.8,30.21,WSW,255,0.0,0.0,77,0.00,,CLR,0.00,VWS V14.01,2013-01-06 01:51:00,
2013-01-05 20:56:00,28.0,21.7,30.21,WNW,302,0.0,2.0,77,0.00,,CLR,0.00,VWS V14.01,2013-01-06 01:56:00,
2013-01-05 21:01:00,28.0,22.0,30.21,WSW,248,1.0,1.0,78,0.00,,CLR,0.00,VWS V14.01,2013-01-06 02:01:00,
2013-01-05 21:06:00,28.0,22.0,30.23,SW,232,1.0,2.0,78,0.00,,CLR,0.00,VWS V14.01,2013-01-06 02:06:00,
2013-01-05 21:11:00,28.2,22.2,30.23,SW,236,1.0,3.0,78,0.00,,CLR,0.00,VWS V14.01,2013-01-06 02:11:00,
2013-01-05 21:16:00,28.3,22.0,30.22,West,278,4.0,4.0,77,0.00,,CLR,0.00,VWS V14.01,2013-01-06 02:16:00,
2013-01-05 21:21:00,28.3,22.0,30.22,West,277,1.0,4.0,77,0.00,,CLR,0.00,VWS V14.01,2013-01-06 02:21:00,
2013-01-05 21:26:00,28.3,22.3,30.22,West,269,0.0,4.0,78,0.00,,CLR,0.00,VWS V14.01,2013-01-06 02:26:00,
2013-01-05 21:31:00,28.2,22.2,30.21,West,269,0.0,0.0,78,0.00,,CLR,0.00,VWS V14.01,2013-01-06 02:31:00,
2013-01-05 21:36:00,28.0,22.0,30.21,West,269,0.0,0.0,78,0.00,,CLR,0.00,VWS V14.01,2013-01-06 02:36:00,
2013-01-05 21:41:00,28.0,22.3,30.21,West,269,0.0,1.0,79,0.00,,CLR,0.00,VWS V14.01,2013-01-06 02:41:00,
2013-01-05 21:46:00,28.0,22.3,30.20,West,269,1.0,1.0,79,0.00,,CLR,0.00,VWS V14.01,2013-01-06 02:46:00,
2013-01-05 21:51:00,28.1,22.4,30.20,WSW,250,0.0,1.0,79,0.00,,CLR,0.00,VWS V14.01,2013-01-06 02:51:00,
2013-01-05 21:56:00,28.2,22.5,30.20,WSW,240,0.0,1.0,79,0.00,,CLR,0.00,VWS V14.01,2013-01-06 02:56:00,
2013-01-05 22:01:00,28.3,22.3,30.19,WSW,240,0.0,0.0,78,0.00,,CLR,0.00,VWS V14.01,2013-01-06 03:01:00,
2013-01-05 22:06:00,28.2,22.5,30.19,WSW,238,0.0,0.0,79,0.00,,CLR,0.00,VWS V14.01,2013-01-06 03:06:00,
2013-01-05 22:11:00,28.0,22.3,30.18,WSW,238,0.0,0.0,79,0.00,,CLR,0.00,VWS V14.01,2013-01-06 03:11:00,
2013-01-05 22:16:00,27.8,22.1,30.18,WSW,238,0.0,0.0,79,0.00,,CLR,0.00,VWS V14.01,2013-01-06 03:16:00,
2013-01-05 22:21:00,27.8,22.1,30.18,WSW,238,0.0,0.0,79,0.00,,CLR,0.00,VWS V14.01,2013-01-06 03:21:00,
2013-01-05 22:26:00,27.7,22.0,30.18,WSW,238,0.0,0.0,79,0.00,,CLR,0.00,VWS V14.01,2013-01-06 03:26:00,
2013-01-05 22:31:00,27.7,22.4,30.18,WSW,238,0.0,0.0,80,0.00,,CLR,0.00,VWS V14.01,2013-01-06 03:31:00,
2013-01-05 22:36:00,28.0,22.6,30.19,WSW,237,0.0,0.0,80,0.00,,CLR,0.00,VWS V14.01,2013-01-06 03:36:00,
2013-01-05 22:41:00,28.1,22.7,30.20,WSW,238,0.0,0.0,80,0.00,,CLR,0.00,VWS V14.01,2013-01-06 03:41:00,
2013-01-05 22:46:00,28.2,22.5,30.19,WSW,240,1.0,1.0,79,0.00,,CLR,0.00,VWS V14.01,2013-01-06 03:46:00,
2013-01-05 22:51:00,28.4,23.0,30.19,WSW,245,0.0,1.0,80,0.00,,CLR,0.00,VWS V14.01,2013-01-06 03:51:00,
2013-01-05 22:56:00,28.6,22.9,30.20,West,269,2.0,2.0,79,0.00,,CLR,0.00,VWS V14.01,2013-01-06 03:56:00,
2013-01-05 23:01:00,28.6,22.9,30.19,West,277,0.0,0.0,79,0.00,,CLR,0.00,VWS V14.01,2013-01-06 04:01:00,
2013-01-05 23:06:00,28.7,23.0,30.19,West,271,1.0,2.0,79,0.00,,CLR,0.00,VWS V14.01,2013-01-06 04:06:00,
2013-01-05 23:11:00,28.7,23.0,30.19,WSW,246,0.0,2.0,79,0.00,,CLR,0.00,VWS V14.01,2013-01-06 04:11:00,
2013-01-05 23:16:00,28.8,23.1,30.18,West,263,1.0,1.0,79,0.00,,CLR,0.00,VWS V14.01,2013-01-06 04:16:00,
2013-01-05 23:21:00,28.7,23.0,30.18,West,263,0.0,1.0,79,0.00,,CLR,0.00,VWS V14.01,2013-01-06 04:21:00,
2013-01-05 23:26:00,28.6,22.9,30.17,West,263,0.0,1.0,79,0.00,,CLR,0.00,VWS V14.01,2013-01-06 04:26:00,
2013-01-05 23:31:00,28.6,22.6,30.17,West,263,0.0,0.0,78,0.00,,CLR,0.00,VWS V14.01,2013-01-06 04:31:00,
2013-01-05 23:36:00,28.6,22.9,30.17,West,263,0.0,0.0,79,0.00,,CLR,0.00,VWS V14.01,2013-01-06 04:36:00,
2013-01-05 23:41:00,28.7,23.3,30.17,West,261,0.0,0.0,80,0.00,,CLR,0.00,VWS V14.01,2013-01-06 04:41:00,
2013-01-05 23:46:00,28.7,23.0,30.16,West,259,0.0,0.0,79,0.00,,CLR,0.00,VWS V14.01,2013-01-06 04:46:00,
2013-01-05 23:51:00,28.6,23.5,30.16,WSW,258,0.0,0.0,81,0.00,,CLR,0.00,VWS V14.01,2013-01-06 04:51:00,
2013-01-05 23:56:00,28.5,23.7,30.18,West,260,0.0,1.0,82,0.00,,CLR,0.00,VWS V14.01,2013-01-06 04:56:00,